User: anonymous   Login
Location: Unspecified
(0.0000°N, 0.0000°E)
Time: 21:02:15
(UTC+01:00)
Language:

Coronas F rocket - Orbit

View from above orbital plane
View from above orbital plane
View from above satellite
View from above satellite

Ground track
Ground track

The orbit data is extracted from the following two-line orbital elements,

1 26874U 01032B   15064.95906575  .00019589  00000-0  23359-3 0  9992
2 26874 082.4658 067.5267 0013820 158.4071 201.7771 15.60793245762007
Epoch (UTC): 05 March 2015 23:01:03
Eccentricity: 0.0013820
inclination: 82.4658°
perigee height: 376 km
apogee height: 395 km
right ascension of ascending node: 67.5267°
argument of perigee: 158.4071°
revolutions per day: 15.60793245
mean anomaly at epoch: 201.7771°
orbit number at epoch: 76200

The dashed part of the orbit path shows where the satellite is in the earth's shadow,  

DLR